CW1492 Weather Reports


Display with metric or nautical units.
time (UTC)temp
F
wind
direction
speed
MPH
gust
MPH
rain 1hr
in
rain 24hr
in
rain mn
in
humidity
%
barometer
mb
20260509203338 48 147 4.0 6.0 0.05 0.41 0.41 96 1011.1
20260509203331 46 247 2.0 4.0 0.07 0.40 0.40 88 1012.7
20260509201902 46 240 2.0 3.0 0.06 0.38 0.38 88 1012.6
20260509201900 48 141 3.0 4.0 0.06 0.40 0.40 95 1011.2
20260509200426 48 160 3.0 5.0 0.05 0.38 0.38 96 1011.2
20260509200411 46 245 1.0 3.0 0.07 0.37 0.37 88 1012.8
20260509194910 45 264 0.0 2.0 0.05 0.34 0.34 88 1012.8
20260509194905 47 139 3.0 4.0 0.06 0.37 0.37 95 1011.4
20260509193332 45 303 0.0 0.0 0.06 0.33 0.33 88 1012.8
20260509193323 47 142 3.0 6.0 0.05 0.35 0.35 95 1011.4
20260509191835 45 303 0.0 0.0 0.06 0.32 0.32 88 1013.1
20260509191819 47 146 1.0 3.0 0.05 0.34 0.34 95 1011.7
20260509190352 45 303 0.0 0.0 0.05 0.30 0.30 88 1013.2
20260509190342 47 113 0.0 2.0 0.06 0.33 0.33 95 1011.7
20260509184847 44 303 0.0 2.0 0.06 0.29 0.29 88 1013.4
20260509184845 47 159 2.0 3.0 0.05 0.31 0.31 94 1011.7
20260509183407 47 126 2.0 4.0 0.06 0.30 0.30 95 1011.8
20260509183353 44 260 0.0 1.0 0.06 0.27 0.27 88 1013.4
20260509181833 44 260 0.0 2.0 0.06 0.26 0.26 88 1013.4
20260509181825 46 135 3.0 7.0 0.06 0.29 0.29 94 1011.9
20260509180420 44 182 0.0 0.0 0.07 0.25 0.25 88 1013.6
20260509180337 44 182 0.0 0.0 0.07 0.25 0.25 88 1013.6
20260509180313 46 134 7.0 9.0 0.06 0.27 0.27 94 1012.2
20260509174927 44 182 0.0 1.0 0.07 0.23 0.23 88 1013.9
20260509174839 46 140 6.0 8.0 0.07 0.26 0.26 94 1012.4
20260509173359 46 142 6.0 8.0 0.06 0.24 0.24 94 1012.4
20260509173356 44 247 0.0 2.0 0.07 0.21 0.21 88 1014.0
20260509171915 44 277 0.0 2.0 0.07 0.20 0.20 88 1014.2
20260509171836 46 142 4.0 7.0 0.07 0.23 0.23 94 1012.6
20260509170356 46 149 3.0 5.0 0.07 0.21 0.21 94 1012.8
20260509170345 44 277 1.0 2.0 0.07 0.18 0.18 88 1014.2
20260509170320 46 149 3.0 5.0 0.07 0.21 0.21 94 1012.8
20260509164845 43 277 0.0 2.0 0.06 0.16 0.16 88 1014.4
20260509164815 45 128 0.0 0.0 0.07 0.19 0.19 95 1012.8
20260509163434 43 310 0.0 2.0 0.05 0.14 0.14 88 1014.4
20260509163352 43 310 0.0 2.0 0.05 0.14 0.14 88 1014.4
20260509163314 45 134 0.0 1.0 0.06 0.17 0.17 95 1012.9
20260509161923 45 102 0.0 0.0 0.08 0.16 0.16 95 1012.9
20260509161905 43 311 0.0 0.0 0.06 0.13 0.13 88 1014.4
20260509161841 45 102 0.0 0.0 0.08 0.16 0.16 95 1012.9
20260509160404 43 311 0.0 2.0 0.05 0.11 0.11 88 1014.6
20260509160344 45 111 0.0 1.0 0.07 0.14 0.14 95 1013.2
20260509154932 42 273 1.0 3.0 0.06 0.10 0.10 88 1015.0
20260509154846 45 102 0.0 1.0 0.07 0.12 0.12 95 1013.3
20260509153344 43 295 1.0 3.0 0.06 0.09 0.09 88 1015.0
20260509153324 44 117 0.0 2.0 0.07 0.11 0.11 95 1013.7
20260509151848 44 145 1.0 2.0 0.05 0.09 0.09 95 1013.8
20260509151834 43 280 1.0 2.0 0.04 0.07 0.07 88 1015.2
20260509150410 44 150 0.0 2.0 0.04 0.07 0.07 95 1013.8
20260509150406 42 280 0.0 1.0 0.04 0.06 0.06 88 1015.4
20260509144844 42 280 0.0 0.0 0.02 0.04 0.04 88 1015.2
20260509143414 41 280 0.0 1.0 0.02 0.03 0.03 87 1015.2
20260509143348 44 128 0.0 2.0 0.03 0.04 0.04 94 1013.7
20260509141831 41 288 0.0 0.0 0.02 0.03 0.03 87 1015.1
20260509141825 43 131 0.0 2.0 0.03 0.04 0.04 93 1013.7
20260509140344 41 288 1.0 2.0 0.01 0.02 0.02 87 1015.2
20260509140322 43 149 1.0 3.0 0.03 0.03 0.03 93 1013.7
20260509134905 40 289 0.0 4.0 0.02 0.02 0.02 86 1015.2
20260509134825 43 149 1.0 3.0 0.02 0.02 0.02 92 1013.7
20260509133347 40 288 2.0 2.0 0.01 0.01 0.01 85 1015.1
20260509133324 43 41 0.0 2.0 0.01 0.01 0.01 91 1013.6
20260509131913 43 146 3.0 5.0 0.01 0.01 0.01 89 1013.4
20260509131834 40 288 1.0 2.0 0.01 0.01 0.01 82 1015.1
20260509130334 43 171 0.0 4.0 0.00 0.00 0.00 90 1013.4
20260509130332 39 288 1.0 3.0 0.00 0.00 0.00 77 1015.0
20260509124859 39 309 0.0 0.0 0.00 0.00 0.00 76 1014.9
20260509124833 42 99 0.0 0.0 0.00 0.00 0.00 90 1013.5
20260509123352 44 119 0.0 3.0 0.00 0.00 0.00 88 1013.6
20260509123342 38 309 0.0 2.0 0.00 0.00 0.00 73 1015.2
20260509121853 43 149 3.0 6.0 0.00 0.00 0.00 80 1013.7
20260509121829 39 327 1.0 1.0 0.00 0.00 0.00 74 1015.2
20260509120351 43 148 1.0 5.0 0.00 0.00 0.00 79 1013.8
20260509120330 38 327 1.0 3.0 0.00 0.00 0.00 73 1015.3
20260509114906 38 328 0.0 0.0 0.00 0.00 0.00 72 1015.3
20260509114857 43 144 4.0 7.0 0.00 0.00 0.00 80 1013.8
20260509113433 42 150 6.0 8.0 0.00 0.00 0.00 82 1013.9
20260509113348 37 334 0.0 0.0 0.00 0.00 0.00 73 1015.4
20260509111936 37 347 0.0 0.0 0.00 0.00 0.00 76 1015.4
20260509111854 37 347 0.0 0.0 0.00 0.00 0.00 76 1015.4
20260509111829 42 139 6.0 8.0 0.00 0.00 0.00 84 1013.8
20260509110337 37 347 0.0 0.0 0.00 0.00 0.00 76 1015.4
20260509110327 41 151 4.0 8.0 0.00 0.00 0.00 86 1013.9
20260509104834 36 347 0.0 0.0 0.00 0.00 0.00 76 1015.5
20260509104822 38 297 0.0 0.0 0.00 0.00 0.00 94 1014.0
20260509103408 36 347 0.0 1.0 0.00 0.00 0.00 74 1015.3
20260509103341 37 297 0.0 0.0 0.00 0.00 0.00 94 1014.0
20260509101929 36 297 0.0 0.0 0.00 0.00 0.00 95 1013.8
20260509101829 36 347 0.0 0.0 0.00 0.00 0.00 74 1015.2
20260509100348 35 258 0.0 0.0 0.00 0.00 0.00 73 1015.2
20260509100331 36 297 0.0 0.0 0.00 0.00 0.00 95 1013.6
20260509094920 36 258 0.0 0.0 0.00 0.00 0.00 73 1015.3
20260509094912 35 297 0.0 0.0 0.00 0.00 0.00 95 1013.8
20260509093352 35 297 0.0 0.0 0.00 0.00 0.00 95 1013.6
20260509093329 36 129 1.0 1.0 0.00 0.00 0.00 73 1015.1
20260509091857 35 297 0.0 0.0 0.00 0.00 0.00 95 1013.7
20260509091832 36 129 0.0 1.0 0.00 0.00 0.00 73 1015.1
20260509090335 35 129 1.0 2.0 0.00 0.00 0.00 72 1015.0
20260509090331 35 297 0.0 0.0 0.00 0.00 0.00 95 1013.6
20260509084857 35 297 0.0 0.0 0.00 0.00 0.00 95 1013.4
20260509084837 35 129 0.0 2.0 0.00 0.00 0.00 72 1014.9
20260509083358 34 297 0.0 0.0 0.00 0.00 0.00 95 1013.3
20260509083348 35 129 0.0 2.0 0.00 0.00 0.00 72 1014.6
20260509081900 34 297 0.0 0.0 0.00 0.00 0.00 95 1013.4
20260509081827 35 129 0.0 3.0 0.00 0.00 0.00 70 1014.7
20260509080439 35 124 0.0 1.0 0.00 0.00 0.00 69 1014.4
20260509080346 34 297 0.0 0.0 0.00 0.00 0.00 94 1012.9
20260509074909 34 296 0.0 0.0 0.00 0.00 0.00 94 1012.9
20260509074901 35 124 0.0 1.0 0.00 0.00 0.00 68 1014.3
20260509073355 34 296 0.0 0.0 0.00 0.00 0.00 94 1012.9
20260509073326 35 124 1.0 3.0 0.00 0.00 0.00 70 1014.2
20260509071921 35 88 0.0 0.0 0.00 0.00 0.00 69 1014.1
20260509071913 34 286 0.0 0.0 0.00 0.00 0.00 94 1012.7
20260509070355 35 88 0.0 1.0 0.00 0.00 0.00 67 1014.3
20260509070313 34 286 0.0 0.0 0.00 0.00 0.00 93 1013.0
20260509064922 37 88 0.0 0.0 0.00 0.00 0.00 65 1014.3
20260509064832 34 286 0.0 0.0 0.00 0.00 0.00 93 1012.8
20260509063412 34 286 0.0 0.0 0.00 0.00 0.00 93 1012.9
20260509063346 38 88 0.0 0.0 0.00 0.00 0.00 64 1014.3
20260509061855 35 286 0.0 1.0 0.00 0.00 0.00 93 1013.0
20260509061849 38 88 0.0 0.0 0.00 0.00 0.00 63 1014.5
20260509060415 38 88 0.0 1.0 0.00 0.00 0.00 63 1014.7
20260509060351 35 286 0.0 0.0 0.00 0.00 0.00 93 1013.2
20260509054848 36 286 1.0 1.0 0.00 0.00 0.00 92 1013.2
20260509054833 40 88 1.0 3.0 0.00 0.00 0.00 62 1014.7
20260509053343 36 286 0.0 1.0 0.00 0.00 0.00 92 1013.3
20260509051824 40 87 3.0 4.0 0.00 0.00 0.00 61 1014.8
20260509050419 40 84 1.0 3.0 0.00 0.00 0.00 62 1014.8
20260509050407 36 286 0.0 1.0 0.00 0.00 0.00 91 1013.2
20260509044837 40 94 0.0 2.0 0.00 0.00 0.00 61 1014.7
20260509044821 36 286 0.0 0.0 0.00 0.00 0.00 89 1013.1
20260509043341 40 94 2.0 3.0 0.00 0.00 0.00 61 1014.6
20260509043339 37 286 0.0 0.0 0.00 0.00 0.00 88 1013.1
20260509041904 41 93 0.0 2.0 0.00 0.00 0.00 59 1014.4
20260509041837 37 286 0.0 0.0 0.00 0.00 0.00 88 1012.9
20260509040358 37 286 0.0 0.0 0.00 0.00 0.00 88 1012.8
20260509040342 41 93 2.0 3.0 0.00 0.00 0.00 59 1014.3
20260509034918 41 99 1.0 3.0 0.00 0.00 0.00 59 1014.5
20260509034842 38 286 0.0 1.0 0.00 0.00 0.00 87 1013.0
20260509033424 42 89 2.0 3.0 0.00 0.00 0.00 58 1014.5
20260509033342 42 89 2.0 3.0 0.00 0.00 0.00 58 1014.5
20260509031929 38 286 1.0 1.0 0.00 0.00 0.00 86 1012.8
20260509031829 42 100 3.0 3.0 0.00 0.00 0.00 57 1014.4
20260509030352 43 101 2.0 3.0 0.00 0.00 0.00 56 1014.3
20260509030325 39 294 0.0 2.0 0.00 0.00 0.00 84 1012.7
20260509024908 39 288 0.0 2.0 0.00 0.00 0.00 84 1012.6
20260509024901 44 109 2.0 4.0 0.00 0.00 0.00 53 1014.2
20260509023332 44 106 2.0 4.0 0.00 0.00 0.00 52 1014.1
20260509023327 39 301 1.0 2.0 0.00 0.00 0.00 84 1012.6
20260509021850 44 100 2.0 3.0 0.00 0.00 0.00 51 1014.0
20260509020348 40 300 0.0 1.0 0.00 0.00 0.00 81 1012.2
20260509020336 44 80 2.0 4.0 0.00 0.00 0.00 51 1013.7
20260509014848 45 70 2.0 4.0 0.00 0.00 0.00 51 1013.7
20260509013332 45 70 1.0 3.0 0.00 0.00 0.00 50 1013.4
20260509013326 42 302 0.0 1.0 0.00 0.00 0.00 79 1011.8
20260509011920 45 70 2.0 3.0 0.00 0.00 0.00 49 1013.4
20260509011826 43 297 1.0 1.0 0.00 0.00 0.00 77 1011.8
20260509010432 44 284 0.0 0.0 0.00 0.00 0.00 74 1011.6
20260509010427 47 91 2.0 3.0 0.00 0.00 0.00 47 1013.1
20260509004854 47 282 0.0 5.0 0.00 0.00 0.00 45 1012.9
20260509004831 46 284 0.0 0.0 0.00 0.00 0.00 71 1011.3
20260509003350 47 309 0.0 2.0 0.00 0.00 0.00 68 1011.0
20260509003337 48 288 3.0 4.0 0.00 0.00 0.00 45 1012.6
20260509001829 49 90 0.0 0.0 0.00 0.00 0.00 66 1010.9
20260509001824 49 286 1.0 12.0 0.00 0.00 0.00 44 1012.4
20260509000350 50 94 0.0 2.0 0.00 0.00 0.00 63 1010.8
20260509000344 49 274 1.0 5.0 0.00 0.00 0.00 43 1012.4
20260508234830 50 326 5.0 9.0 0.00 0.00 0.00 42 1012.2
20260508234812 50 70 0.0 2.0 0.00 0.00 0.00 62 1010.6
20260508233357 50 259 2.0 11.0 0.00 0.00 0.00 43 1012.0
20260508233331 50 288 0.0 2.0 0.00 0.00 0.00 63 1010.4
20260508231849 50 300 1.0 2.0 0.00 0.00 0.00 62 1010.2
20260508231839 50 278 3.0 8.0 0.00 0.00 0.00 45 1011.9
20260508230348 51 348 2.0 4.0 0.00 0.00 0.00 62 1010.2
20260508230344 49 243 2.0 7.0 0.00 0.00 0.00 47 1011.8
20260508224935 50 255 3.0 9.0 0.00 0.00 0.00 46 1011.7
20260508224829 51 336 1.0 2.0 0.00 0.00 0.00 61 1010.1
20260508223411 51 322 3.0 11.0 0.00 0.00 0.00 43 1011.5
20260508223330 52 311 1.0 4.0 0.00 0.00 0.00 58 1009.9
20260508221856 52 257 7.0 14.0 0.00 0.00 0.00 41 1011.3
20260508221851 52 346 1.0 5.0 0.00 0.00 0.00 60 1009.7
20260508220333 51 336 5.0 10.0 0.00 0.00 0.00 44 1011.3
20260508220313 52 14 2.0 8.0 0.00 0.00 0.00 60 1009.7
20260508214901 51 271 6.0 11.0 0.00 0.00 0.00 46 1011.4
20260508214833 51 317 1.0 5.0 0.00 0.00 0.00 65 1009.8
20260508213413 50 308 6.0 15.0 0.00 0.00 0.00 47 1011.5
20260508213354 51 325 3.0 9.0 0.00 0.00 0.00 63 1009.9
20260508211856 52 327 7.0 18.0 0.00 0.00 0.00 36 1011.2
20260508211836 53 291 4.0 10.0 0.00 0.00 0.00 47 1009.3
20260508210339 53 240 4.0 12.0 0.00 0.00 0.00 29 1010.6
20260508204910 55 280 5.0 13.0 0.00 0.00 0.00 29 1010.4
20260508204811 56 301 3.0 9.0 0.00 0.00 0.00 42 1008.7